This is the latest recevied weather packets stored in our database for station/object SP1BMW-13. If no packets are shown the sender has not sent any weather packets the latest 10 day(s).
| Time | Temp. | Humidity | Pressure | Rain* | Wind** | Luminosity | Snow |
|---|---|---|---|---|---|---|---|
| 1787869997 | 18.33° C | 58% | 1016.1 hPa | 0 mm | 1.34 m/s, 55° | 0 W/m² | - |
| 1787869937 | 18.33° C | 58% | 1016.2 hPa | 0 mm | 0.89 m/s, 42° | 0 W/m² | - |
| 1787869877 | 18.33° C | 58% | 1016.3 hPa | 0 mm | 0 m/s | 0 W/m² | - |
| 1787869817 | 18.33° C | 58% | 1016.2 hPa | 0 mm | 0.45 m/s, 113° | 0 W/m² | - |
| 1787869757 | 18.33° C | 58% | 1016.3 hPa | 0 mm | 0.89 m/s, 53° | 0 W/m² | - |
| 1787869697 | 18.33° C | 58% | 1016.3 hPa | 0 mm | 0.45 m/s, 142° | 0 W/m² | - |
| 1787869637 | 18.33° C | 57% | 1016.2 hPa | 0 mm | 0.45 m/s, 60° | 0 W/m² | - |
| 1787869577 | 18.33° C | 58% | 1016.3 hPa | 0 mm | 0.45 m/s, 58° | 0 W/m² | - |
| 1787869517 | 18.33° C | 57% | 1016.4 hPa | 0 mm | 1.34 m/s, 140° | 0 W/m² | - |
| 1787869457 | 18.33° C | 57% | 1016.5 hPa | 0 mm | 0.89 m/s, 98° | 0 W/m² | - |
| 1787869397 | 18.33° C | 57% | 1016.3 hPa | 0 mm | 0.45 m/s, 153° | 0 W/m² | - |
| 1787869337 | 18.33° C | 57% | 1016.4 hPa | 0 mm | 1.79 m/s, 88° | 0 W/m² | - |
| 1787869277 | 18.33° C | 57% | 1016.3 hPa | 0 mm | 0.89 m/s, 95° | 0 W/m² | - |
| 1787869217 | 18.33° C | 57% | 1016.3 hPa | 0 mm | 2.24 m/s, 34° | 0 W/m² | - |
| 1787869156 | 18.33° C | 57% | 1016.4 hPa | 0 mm | 0.45 m/s, 38° | 0 W/m² | - |
| 1787869097 | 18.33° C | 57% | 1016.6 hPa | 0 mm | 0.89 m/s, 56° | 0 W/m² | - |
| 1787869037 | 18.33° C | 57% | 1016.3 hPa | 0 mm | 0.89 m/s, 31° | 0 W/m² | - |
| 1787868977 | 18.33° C | 57% | 1016.5 hPa | 0 mm | 0.45 m/s, 55° | 0 W/m² | - |
| 1787868917 | 18.33° C | 57% | 1016.4 hPa | 0 mm | 0 m/s | 0 W/m² | - |
| 1787868857 | 18.33° C | 57% | 1016.6 hPa | 0 mm | 0.45 m/s, 13° | 0 W/m² | - |
| 1787868797 | 18.33° C | 57% | 1016.7 hPa | 0 mm | 1.34 m/s, 20° | 0 W/m² | - |
| 1787868736 | 18.33° C | 57% | 1016.4 hPa | 0 mm | 0 m/s | 0 W/m² | - |
| 1787868677 | 18.89° C | 57% | 1016.7 hPa | 0 mm | 0.89 m/s, 68° | 0 W/m² | - |
| 1787868616 | 18.89° C | 57% | 1016.6 hPa | 0 mm | 0.45 m/s, 68° | 0 W/m² | - |
| 1787868557 | 18.89° C | 56% | 1016.7 hPa | 0 mm | 1.34 m/s, 75° | 0 W/m² | - |
* Rain latest hour (hover to see other rain measurements)
** Current wind speed in m/s (hover to see current wind gust speed)